Location: Newark
(27.9675°N, 86.8869°E)
Time: 22:50:10
(UTC+00:00)

Courier 1B Rocket - Pass Details

Date: 21 October 2019
Orbit: 920 x 1202 km, 28.2° (Epoch: 21 November)

Event Time Altitude Azimuth Distance (km) Brightness Sun altitude
Rises 02:27:35 0° 277° (W) 3,601 7.5 26.3°
Reaches altitude 10° 02:30:19 10° 269° (W) 2,684 6.9 26.9°
Maximum altitude 02:36:15 38° 203° (SSW) 1,469 6.4 28.0°
Drops below altitude 10° 02:42:34 10° 137° (SE) 2,853 8.9 29.2°
Sets 02:45:34 0° 130° (SE) 3,854 9.3 29.7°
